• In Hungary
  • List of Countries
  • For 7 days
  • Water Temperature
  • Satellite Maps
  • Weather Map
  • News
  • Weather Widgets
  • user-avatar
    Login

    Hourly Weather Jewłach

    Today, 19 August, Saturday

    Time Temperature Precipitation Wind Pressure Humidity
    00:00 +29°C° 0 mm 3 mps 760 mmHg 42%
    01:00 +29°C° 0 mm 3 mps 760 mmHg 44%
    02:00 +28°C° 0 mm 3 mps 760 mmHg 45%
    03:00 +28°C° 0 mm 3 mps 760 mmHg 46%
    04:00 +28°C° 0 mm 2 mps 761 mmHg 46%
    05:00 +28°C° 0 mm 2 mps 761 mmHg 46%
    06:00 +28°C° 0 mm 1 mps 761 mmHg 46%
    07:00 +30°C° 0 mm 1 mps 761 mmHg 40%
    08:00 +32°C° 0 mm 2 mps 761 mmHg 34%
    09:00 +34°C° 0 mm 2 mps 761 mmHg 28%
    10:00 +36°C° 0 mm 2 mps 760 mmHg 26%
    11:00 +37°C° 0 mm 3 mps 760 mmHg 23%
    12:00 +38°C° 0 mm 3 mps 760 mmHg 21%
    13:00 +40°C° 0 mm 4 mps 760 mmHg 20%
    14:00 +41°C° 0 mm 4 mps 759 mmHg 19%
    15:00 +41°C° 0 mm 5 mps 759 mmHg 18%
    16:00 +40°C° 0 mm 6 mps 759 mmHg 19%
    17:00 +40°C° 0 mm 6 mps 759 mmHg 20%
    18:00 +39°C° 0 mm 6 mps 759 mmHg 20%
    19:00 +36°C° 0 mm 6 mps 760 mmHg 21%
    20:00 +34°C° 0 mm 5 mps 761 mmHg 23%
    21:00 +32°C° 0 mm 5 mps 761 mmHg 24%
    22:00 +30°C° 0 mm 4 mps 761 mmHg 27%
    23:00 +29°C° 0 mm 3 mps 761 mmHg 29%

    Tomorrow, 20 August, Sunday

    Time Temperature Precipitation Wind Pressure Humidity
    00:00 +28°C° 0 mm 3 mps 761 mmHg 32%
    01:00 +28°C° 0 mm 2 mps 761 mmHg 33%
    02:00 +27°C° 0 mm 2 mps 761 mmHg 33%
    03:00 +27°C° 0 mm 2 mps 761 mmHg 34%
    04:00 +27°C° 0 mm 2 mps 761 mmHg 33%
    05:00 +27°C° 0 mm 1 mps 761 mmHg 32%
    06:00 +27°C° 0 mm 1 mps 761 mmHg 32%
    07:00 +29°C° 0 mm 1 mps 761 mmHg 28%
    08:00 +32°C° 0 mm 1 mps 761 mmHg 24%
    09:00 +34°C° 0 mm 1 mps 761 mmHg 19%
    10:00 +36°C° 0 mm 2 mps 760 mmHg 18%
    11:00 +38°C° 0 mm 3 mps 760 mmHg 16%
    12:00 +40°C° 0 mm 5 mps 760 mmHg 14%
    13:00 +41°C° 0 mm 5 mps 759 mmHg 14%
    14:00 +41°C° 0 mm 6 mps 759 mmHg 14%
    15:00 +42°C° 0 mm 6 mps 759 mmHg 15%
    16:00 +41°C° 0 mm 6 mps 759 mmHg 17%
    17:00 +39°C° 0 mm 7 mps 759 mmHg 19%
    18:00 +38°C° 0 mm 7 mps 759 mmHg 21%
    19:00 +35°C° 0 mm 6 mps 760 mmHg 24%
    20:00 +33°C° 0 mm 5 mps 760 mmHg 27%
    21:00 +30°C° 0 mm 4 mps 761 mmHg 30%
    22:00 +29°C° 0 mm 4 mps 761 mmHg 32%
    23:00 +29°C° 0 mm 3 mps 760 mmHg 34%

    Day after tomorrow, 21 August, Monday

    Time Temperature Precipitation Wind Pressure Humidity
    00:00 +28°C° 0 mm 2 mps 760 mmHg 36%
    01:00 +27°C° 0 mm 2 mps 760 mmHg 36%
    02:00 +27°C° 0 mm 2 mps 760 mmHg 35%
    03:00 +26°C° 0 mm 1 mps 760 mmHg 35%
    04:00 +27°C° 0 mm 1 mps 760 mmHg 34%
    05:00 +27°C° 0 mm 1 mps 760 mmHg 34%
    06:00 +27°C° 0 mm 2 mps 760 mmHg 33%
    07:00 +29°C° 0 mm 2 mps 759 mmHg 29%
    08:00 +31°C° 0 mm 2 mps 759 mmHg 25%
    09:00 +34°C° 0 mm 2 mps 759 mmHg 21%
    10:00 +35°C° 0 mm 2 mps 758 mmHg 19%
    11:00 +37°C° 0 mm 2 mps 758 mmHg 18%
    12:00 +38°C° 0 mm 3 mps 757 mmHg 16%
    13:00 +39°C° 0 mm 3 mps 757 mmHg 16%
    14:00 +40°C° 0 mm 3 mps 756 mmHg 15%
    15:00 +42°C° 0 mm 4 mps 756 mmHg 14%
    16:00 +41°C° 0 mm 4 mps 756 mmHg 16%
    17:00 +39°C° 0 mm 3 mps 756 mmHg 17%
    18:00 +38°C° 0 mm 3 mps 756 mmHg 19%
    19:00 +36°C° 0 mm 3 mps 757 mmHg 21%
    20:00 +34°C° 0 mm 3 mps 757 mmHg 24%
    21:00 +32°C° 0 mm 4 mps 758 mmHg 26%
    22:00 +30°C° 0 mm 3 mps 758 mmHg 28%
    23:00 +29°C° 0 mm 3 mps 758 mmHg 29%

    22 August, Tuesday

    Time Temperature Precipitation Wind Pressure Humidity
    00:00 +29°C° 0 mm 2 mps 758 mmHg 31%
    01:00 +28°C° 0 mm 2 mps 758 mmHg 32%
    02:00 +28°C° 0 mm 1 mps 757 mmHg 33%
    03:00 +27°C° 0 mm 1 mps 757 mmHg 34%
    04:00 +27°C° 0 mm 1 mps 757 mmHg 34%
    05:00 +27°C° 0 mm 1 mps 758 mmHg 34%
    06:00 +27°C° 0 mm 1 mps 758 mmHg 34%
    07:00 +30°C° 0 mm 1 mps 758 mmHg 29%
    08:00 +32°C° 0 mm 1 mps 757 mmHg 25%
    09:00 +34°C° 0 mm 1 mps 757 mmHg 20%
    10:00 +36°C° 0 mm 2 mps 757 mmHg 19%
    11:00 +38°C° 0 mm 3 mps 756 mmHg 17%
    12:00 +39°C° 0 mm 3 mps 756 mmHg 16%
    13:00 +41°C° 0 mm 4 mps 755 mmHg 15%
    14:00 +42°C° 0 mm 4 mps 755 mmHg 15%
    15:00 +42°C° 0 mm 4 mps 755 mmHg 15%
    16:00 +41°C° 0 mm 4 mps 755 mmHg 17%
    17:00 +40°C° 0 mm 5 mps 755 mmHg 18%
    18:00 +39°C° 0 mm 5 mps 756 mmHg 20%
    19:00 +36°C° 0 mm 5 mps 756 mmHg 23%
    20:00 +34°C° 0 mm 5 mps 757 mmHg 26%
    21:00 +32°C° 0 mm 5 mps 757 mmHg 29%
    22:00 +30°C° 0 mm 4 mps 757 mmHg 31%
    23:00 +29°C° 0 mm 3 mps 758 mmHg 32%

    23 August, Wednesday

    Time Temperature Precipitation Wind Pressure Humidity
    00:00 +28°C° 0 mm 2 mps 758 mmHg 34%
    01:00 +28°C° 0 mm 2 mps 758 mmHg 35%
    02:00 +27°C° 0 mm 2 mps 758 mmHg 36%
    03:00 +27°C° 0 mm 2 mps 758 mmHg 36%
    04:00 +27°C° 0 mm 1 mps 758 mmHg 36%
    05:00 +27°C° 0 mm 1 mps 758 mmHg 35%
    06:00 +27°C° 0 mm 1 mps 758 mmHg 35%
    07:00 +29°C° 0 mm 1 mps 758 mmHg 29%
    08:00 +32°C° 0 mm 1 mps 758 mmHg 24%
    09:00 +34°C° 0 mm 1 mps 758 mmHg 18%
    10:00 +37°C° 0 mm 2 mps 758 mmHg 16%
    11:00 +38°C° 0 mm 4 mps 758 mmHg 14%
    12:00 +41°C° 0 mm 5 mps 757 mmHg 12%
    13:00 +41°C° 0 mm 5 mps 757 mmHg 13%
    14:00 +42°C° 0 mm 6 mps 757 mmHg 13%
    15:00 +42°C° 0 mm 6 mps 757 mmHg 13%
    16:00 +41°C° 0 mm 7 mps 757 mmHg 15%
    17:00 +40°C° 0 mm 7 mps 757 mmHg 16%
    18:00 +38°C° 0 mm 7 mps 757 mmHg 18%
    19:00 +35°C° 0 mm 6 mps 758 mmHg 20%
    20:00 +33°C° 0 mm 5 mps 758 mmHg 22%
    21:00 +30°C° 0 mm 4 mps 759 mmHg 24%
    22:00 +29°C° 0 mm 4 mps 759 mmHg 26%
    23:00 +28°C° 0 mm 3 mps 759 mmHg 27%

    24 August, Thursday

    Time Temperature Precipitation Wind Pressure Humidity
    00:00 +28°C° 0 mm 2 mps 759 mmHg 28%
    01:00 +27°C° 0 mm 2 mps 759 mmHg 28%
    02:00 +27°C° 0 mm 2 mps 759 mmHg 28%
    03:00 +26°C° 0 mm 1 mps 759 mmHg 28%
    04:00 +27°C° 0 mm 1 mps 759 mmHg 27%
    05:00 +27°C° 0 mm 1 mps 759 mmHg 27%
    06:00 +27°C° 0 mm 1 mps 759 mmHg 27%
    07:00 +29°C° 0 mm 1 mps 759 mmHg 23%
    08:00 +31°C° 0 mm 2 mps 759 mmHg 20%
    09:00 +35°C° 0 mm 2 mps 759 mmHg 16%
    10:00 +36°C° 0 mm 2 mps 758 mmHg 15%
    11:00 +37°C° 0 mm 2 mps 758 mmHg 14%
    12:00 +38°C° 0 mm 2 mps 758 mmHg 13%
    13:00 +39°C° 0 mm 2 mps 758 mmHg 12%
    14:00 +40°C° 0 mm 2 mps 758 mmHg 12%
    15:00 +40°C° 0 mm 2 mps 757 mmHg 12%
    16:00 +39°C° 0 mm 2 mps 758 mmHg 13%
    17:00 +39°C° 0 mm 2 mps 758 mmHg 15%
    18:00 +38°C° 0 mm 2 mps 759 mmHg 16%
    19:00 +36°C° 0 mm 2 mps 759 mmHg 19%
    20:00 +34°C° 0 mm 3 mps 760 mmHg 22%
    21:00 +31°C° 0 mm 3 mps 761 mmHg 24%
    22:00 +30°C° 0 mm 3 mps 761 mmHg 27%
    23:00 +29°C° 0 mm 2 mps 761 mmHg 29%
    Show more